| time (UTC) | temp F | wind direction | speed knots | gust knots | rain 1hr in | rain 24hr in | rain mn in | humidity % | barometer mb |
| 20260906225518 | 70 | 19 | 12.2 | 17.4 | 0.00 | 0.00 | 0.00 | 65 | 1015.6 |
| 20260906225019 | 70 | 344 | 12.2 | 17.4 | 0.00 | 0.00 | 0.00 | 64 | 1015.7 |
| 20260906224600 | 70 | 338 | 12.2 | 15.6 | 0.00 | 0.00 | 0.00 | 65 | 1015.6 |
| 20260906224018 | 69 | 329 | 11.3 | 15.6 | 0.00 | 0.00 | 0.00 | 65 | 1015.7 |
| 20260906223520 | 70 | 319 | 12.2 | 15.6 | 0.00 | 0.00 | 0.00 | 64 | 1015.6 |
| 20260906223042 | 70 | 360 | 11.3 | 13.9 | 0.00 | 0.00 | 0.00 | 64 | 1015.7 |
| 20260906222518 | 69 | 323 | 10.4 | 13.9 | 0.00 | 0.00 | 0.00 | 64 | 1015.7 |
| 20260906222019 | 70 | 324 | 9.6 | 13.0 | 0.00 | 0.00 | 0.00 | 64 | 1015.7 |
| 20260906221551 | 70 | 360 | 8.7 | 13.0 | 0.00 | 0.00 | 0.00 | 64 | 1015.8 |
| 20260906221017 | 70 | 350 | 6.1 | 13.9 | 0.00 | 0.00 | 0.00 | 64 | 1015.7 |
| 20260906220517 | 70 | 348 | 9.6 | 13.9 | 0.00 | 0.00 | 0.00 | 63 | 1015.7 |
| 20260906220054 | 70 | 309 | 7.8 | 11.3 | 0.00 | 0.00 | 0.00 | 63 | 1015.7 |
| 20260906215516 | 71 | 333 | 5.2 | 12.2 | 0.00 | 0.00 | 0.00 | 62 | 1015.6 |
| 20260906215016 | 70 | 17 | 4.3 | 12.2 | 0.00 | 0.00 | 0.00 | 63 | 1015.7 |
| 20260906214817 | 70 | 344 | 5.2 | 8.7 | 0.00 | 0.00 | 0.00 | 62 | 1015.8 |
| 20260906214021 | 71 | 360 | 6.1 | 8.7 | 0.00 | 0.00 | 0.00 | 62 | 1015.7 |
| 20260906213518 | 71 | 17 | 5.2 | 8.7 | 0.00 | 0.00 | 0.00 | 62 | 1015.8 |
| 20260906213034 | 70 | 360 | 2.6 | 9.6 | 0.00 | 0.00 | 0.00 | 62 | 1015.7 |
| 20260906212515 | 71 | 360 | 5.2 | 9.6 | 0.00 | 0.00 | 0.00 | 62 | 1015.8 |
| 20260906212016 | 70 | 360 | 2.6 | 6.1 | 0.00 | 0.00 | 0.00 | 62 | 1015.9 |
| 20260906211542 | 70 | 17 | 1.7 | 7.0 | 0.00 | 0.00 | 0.00 | 62 | 1016.0 |
| 20260906211024 | 70 | 328 | 4.3 | 7.0 | 0.00 | 0.00 | 0.00 | 62 | 1016.1 |
| 20260906210516 | 70 | 51 | 1.7 | 3.5 | 0.00 | 0.00 | 0.00 | 62 | 1016.1 |
| 20260906210038 | 70 | 51 | 0.9 | 5.2 | 0.00 | 0.00 | 0.00 | 62 | 1016.2 |
| 20260906205516 | 70 | 65 | 1.7 | 7.0 | 0.00 | 0.00 | 0.00 | 63 | 1016.4 |
| 20260906205018 | 70 | 106 | 5.2 | 7.8 | 0.00 | 0.00 | 0.00 | 62 | 1016.2 |
| 20260906204538 | 70 | 92 | 0.9 | 3.5 | 0.00 | 0.00 | 0.00 | 63 | 1016.4 |
| 20260906204017 | 70 | 350 | 0.0 | 7.0 | 0.00 | 0.00 | 0.00 | 64 | 1016.3 |
| 20260906203516 | 69 | 34 | 1.7 | 8.7 | 0.00 | 0.00 | 0.00 | 64 | 1016.3 |
| 20260906203035 | 69 | 36 | 4.3 | 9.6 | 0.00 | 0.00 | 0.00 | 66 | 1016.3 |
| 20260906202516 | 69 | 348 | 4.3 | 10.4 | 0.00 | 0.00 | 0.00 | 66 | 1016.2 |
| 20260906202018 | 68 | 69 | 2.6 | 9.6 | 0.00 | 0.00 | 0.00 | 66 | 1016.4 |
| 20260906201535 | 68 | 44 | 6.1 | 12.2 | 0.00 | 0.00 | 0.00 | 66 | 1016.4 |
| 20260906201017 | 68 | 39 | 7.0 | 12.2 | 0.00 | 0.00 | 0.00 | 66 | 1016.3 |
| 20260906200518 | 68 | 67 | 3.5 | 12.2 | 0.00 | 0.00 | 0.00 | 67 | 1016.2 |
| 20260906200043 | 68 | 30 | 5.2 | 12.2 | 0.00 | 0.00 | 0.00 | 67 | 1016.2 |
| 20260906195518 | 68 | 60 | 7.8 | 13.0 | 0.00 | 0.00 | 0.00 | 68 | 1016.0 |
| 20260906195016 | 68 | 57 | 8.7 | 13.0 | 0.00 | 0.00 | 0.00 | 68 | 1016.1 |
| 20260906194534 | 67 | 40 | 7.0 | 11.3 | 0.00 | 0.00 | 0.00 | 69 | 1016.5 |
| 20260906194022 | 67 | 49 | 7.8 | 12.2 | 0.00 | 0.00 | 0.00 | 69 | 1016.6 |
| 20260906193517 | 67 | 20 | 8.7 | 13.0 | 0.00 | 0.00 | 0.00 | 69 | 1016.3 |
| 20260906193053 | 66 | 30 | 8.7 | 15.6 | 0.00 | 0.00 | 0.00 | 69 | 1016.3 |
| 20260906192517 | 66 | 34 | 8.7 | 13.9 | 0.00 | 0.00 | 0.00 | 70 | 1016.5 |
| 20260906192017 | 66 | 51 | 9.6 | 14.8 | 0.00 | 0.00 | 0.00 | 70 | 1016.6 |
| 20260906191539 | 65 | 19 | 10.4 | 14.8 | 0.00 | 0.00 | 0.00 | 71 | 1016.7 |
| 20260906191016 | 65 | 28 | 10.4 | 14.8 | 0.00 | 0.00 | 0.00 | 72 | 1016.8 |
| 20260906190518 | 64 | 32 | 11.3 | 14.8 | 0.00 | 0.00 | 0.00 | 72 | 1016.7 |
| 20260906190035 | 64 | 17 | 9.6 | 14.8 | 0.00 | 0.00 | 0.00 | 73 | 1017.0 |
| 20260906185515 | 63 | 10 | 11.3 | 16.5 | 0.00 | 0.00 | 0.00 | 73 | 1017.3 |
| 20260906185018 | 63 | 15 | 11.3 | 16.5 | 0.00 | 0.00 | 0.00 | 73 | 1017.2 |
| 20260906184542 | 62 | 352 | 11.3 | 15.6 | 0.00 | 0.00 | 0.00 | 74 | 1017.6 |
| 20260906184018 | 62 | 5 | 12.2 | 16.5 | 0.00 | 0.00 | 0.00 | 75 | 1017.5 |
| 20260906183518 | 62 | 11 | 12.2 | 16.5 | 0.00 | 0.00 | 0.00 | 75 | 1017.6 |
| 20260906183036 | 62 | 352 | 12.2 | 16.5 | 0.00 | 0.00 | 0.00 | 76 | 1017.6 |
| 20260906182519 | 62 | 5 | 13.0 | 16.5 | 0.00 | 0.00 | 0.00 | 76 | 1017.9 |
| 20260906182017 | 61 | 5 | 12.2 | 16.5 | 0.00 | 0.00 | 0.00 | 77 | 1017.9 |
| 20260906181550 | 61 | 327 | 12.2 | 15.6 | 0.00 | 0.00 | 0.00 | 78 | 1017.9 |
| 20260906181017 | 60 | 21 | 12.2 | 15.6 | 0.00 | 0.00 | 0.00 | 79 | 1017.9 |
| 20260906180518 | 60 | 13 | 13.0 | 17.4 | 0.00 | 0.00 | 0.00 | 80 | 1018.0 |
| 20260906180037 | 59 | 5 | 13.0 | 17.4 | 0.00 | 0.00 | 0.00 | 82 | 1017.9 |
| 20260906175515 | 59 | 16 | 13.9 | 17.4 | 0.00 | 0.00 | 0.00 | 83 | 1017.8 |
| 20260906175019 | 59 | 5 | 13.9 | 17.4 | 0.00 | 0.00 | 0.00 | 84 | 1018.0 |
| 20260906174538 | 58 | 15 | 12.2 | 16.5 | 0.00 | 0.00 | 0.00 | 85 | 1018.1 |
| 20260906174019 | 58 | 352 | 12.2 | 16.5 | 0.00 | 0.00 | 0.00 | 86 | 1018.2 |
| 20260906173520 | 58 | 9 | 13.0 | 17.4 | 0.00 | 0.00 | 0.00 | 86 | 1018.1 |
| 20260906173036 | 58 | 348 | 13.0 | 17.4 | 0.00 | 0.00 | 0.00 | 85 | 1018.3 |
| 20260906172516 | 58 | 360 | 12.2 | 17.4 | 0.00 | 0.00 | 0.00 | 85 | 1018.1 |
| 20260906172019 | 59 | 352 | 13.9 | 19.1 | 0.00 | 0.00 | 0.00 | 83 | 1018.2 |
| 20260906171534 | 60 | 337 | 14.8 | 19.1 | 0.00 | 0.00 | 0.00 | 81 | 1018.2 |
| 20260906171015 | 62 | 342 | 12.2 | 19.1 | 0.00 | 0.00 | 0.00 | 80 | 1018.3 |
| 20260906170521 | 62 | 341 | 11.3 | 14.8 | 0.00 | 0.00 | 0.00 | 79 | 1018.2 |
| 20260906170037 | 62 | 360 | 8.7 | 13.0 | 0.00 | 0.00 | 0.00 | 79 | 1018.3 |
| 20260906165518 | 62 | 5 | 8.7 | 11.3 | 0.00 | 0.00 | 0.00 | 80 | 1018.3 |
| 20260906165024 | 62 | 26 | 7.8 | 10.4 | 0.00 | 0.00 | 0.00 | 80 | 1018.2 |
| 20260906164542 | 62 | 26 | 7.8 | 10.4 | 0.00 | 0.00 | 0.00 | 81 | 1018.1 |
| 20260906164017 | 62 | 27 | 7.0 | 9.6 | 0.00 | 0.00 | 0.00 | 81 | 1018.4 |
| 20260906163516 | 62 | 10 | 5.2 | 8.7 | 0.00 | 0.00 | 0.00 | 81 | 1018.5 |
| 20260906163037 | 62 | 19 | 4.3 | 8.7 | 0.00 | 0.00 | 0.00 | 81 | 1018.6 |
| 20260906162516 | 61 | 39 | 5.2 | 7.8 | 0.00 | 0.00 | 0.00 | 82 | 1018.6 |
| 20260906162017 | 61 | 341 | 1.7 | 7.0 | 0.00 | 0.00 | 0.00 | 82 | 1018.7 |
| 20260906161536 | 61 | 32 | 1.7 | 7.8 | 0.00 | 0.00 | 0.00 | 82 | 1018.7 |
| 20260906161017 | 61 | 61 | 2.6 | 7.8 | 0.00 | 0.00 | 0.00 | 82 | 1018.7 |
| 20260906160517 | 61 | 38 | 3.5 | 6.1 | 0.00 | 0.00 | 0.00 | 82 | 1018.7 |
| 20260906160059 | 61 | 74 | 3.5 | 7.8 | 0.00 | 0.00 | 0.00 | 82 | 1018.8 |
| 20260906155519 | 61 | 43 | 4.3 | 9.6 | 0.00 | 0.00 | 0.00 | 82 | 1018.7 |
| 20260906155019 | 61 | 55 | 5.2 | 8.7 | 0.00 | 0.00 | 0.00 | 82 | 1018.5 |
| 20260906154543 | 61 | 50 | 3.5 | 7.8 | 0.00 | 0.00 | 0.00 | 83 | 1018.5 |
| 20260906154019 | 61 | 74 | 4.3 | 10.4 | 0.00 | 0.00 | 0.00 | 83 | 1018.6 |
| 20260906153516 | 60 | 38 | 7.0 | 10.4 | 0.00 | 0.00 | 0.00 | 82 | 1018.7 |
| 20260906153044 | 61 | 55 | 7.0 | 10.4 | 0.00 | 0.00 | 0.00 | 82 | 1018.7 |
| 20260906152521 | 60 | 63 | 7.8 | 10.4 | 0.00 | 0.00 | 0.00 | 82 | 1018.5 |
| 20260906152017 | 60 | 51 | 8.7 | 12.2 | 0.00 | 0.00 | 0.00 | 83 | 1018.5 |
| 20260906151545 | 60 | 74 | 7.0 | 12.2 | 0.00 | 0.00 | 0.00 | 84 | 1018.7 |
| 20260906151018 | 60 | 51 | 7.0 | 10.4 | 0.00 | 0.00 | 0.00 | 84 | 1018.7 |
| 20260906150517 | 60 | 67 | 7.0 | 11.3 | 0.00 | 0.00 | 0.00 | 85 | 1018.8 |
| 20260906150038 | 60 | 67 | 7.8 | 11.3 | 0.00 | 0.00 | 0.00 | 85 | 1018.5 |
| 20260906145519 | 60 | 59 | 8.7 | 12.2 | 0.00 | 0.00 | 0.00 | 85 | 1018.5 |
| 20260906145022 | 59 | 49 | 9.6 | 12.2 | 0.00 | 0.00 | 0.00 | 85 | 1018.6 |
| 20260906144545 | 59 | 59 | 8.7 | 11.3 | 0.00 | 0.00 | 0.00 | 85 | 1018.7 |
| 20260906144016 | 59 | 49 | 7.0 | 9.6 | 0.00 | 0.00 | 0.00 | 85 | 1019.1 |
| 20260906143516 | 59 | 39 | 7.0 | 8.7 | 0.00 | 0.00 | 0.00 | 85 | 1019.1 |
| 20260906143042 | 59 | 42 | 7.0 | 8.7 | 0.00 | 0.00 | 0.00 | 86 | 1019.2 |
| 20260906142517 | 59 | 49 | 5.2 | 8.7 | 0.00 | 0.00 | 0.00 | 86 | 1019.2 |
| 20260906142016 | 59 | 46 | 6.1 | 8.7 | 0.00 | 0.00 | 0.00 | 86 | 1019.3 |
| 20260906141540 | 59 | 37 | 6.1 | 8.7 | 0.00 | 0.00 | 0.00 | 85 | 1019.4 |
| 20260906141017 | 59 | 37 | 4.3 | 8.7 | 0.00 | 0.00 | 0.00 | 85 | 1019.5 |
| 20260906140518 | 59 | 40 | 6.1 | 8.7 | 0.00 | 0.00 | 0.00 | 85 | 1019.3 |
| 20260906140037 | 59 | 31 | 6.1 | 10.4 | 0.00 | 0.00 | 0.00 | 85 | 1019.2 |
| 20260906135515 | 59 | 20 | 7.0 | 10.4 | 0.00 | 0.00 | 0.00 | 85 | 1019.0 |
| 20260906135018 | 59 | 19 | 6.1 | 10.4 | 0.00 | 0.00 | 0.00 | 85 | 1019.2 |
| 20260906134536 | 58 | 20 | 6.1 | 10.4 | 0.00 | 0.00 | 0.00 | 85 | 1019.2 |
| 20260906134019 | 58 | 13 | 7.8 | 10.4 | 0.00 | 0.00 | 0.00 | 84 | 1019.1 |
| 20260906133518 | 58 | 30 | 6.1 | 12.2 | 0.00 | 0.00 | 0.00 | 85 | 1019.2 |
| 20260906133046 | 58 | 17 | 7.8 | 13.0 | 0.00 | 0.00 | 0.00 | 85 | 1019.0 |
| 20260906132517 | 58 | 22 | 8.7 | 13.0 | 0.00 | 0.00 | 0.00 | 84 | 1018.9 |
| 20260906132018 | 58 | 28 | 7.8 | 10.4 | 0.00 | 0.00 | 0.00 | 84 | 1019.2 |
| 20260906131539 | 58 | 21 | 7.0 | 9.6 | 0.00 | 0.00 | 0.00 | 85 | 1019.3 |
| 20260906131017 | 58 | 5 | 7.0 | 10.4 | 0.00 | 0.00 | 0.00 | 84 | 1019.3 |
| 20260906130517 | 58 | 5 | 7.0 | 10.4 | 0.00 | 0.00 | 0.00 | 84 | 1019.1 |
| 20260906130044 | 58 | 22 | 7.8 | 10.4 | 0.00 | 0.00 | 0.00 | 84 | 1018.9 |
| 20260906125516 | 58 | 5 | 7.0 | 10.4 | 0.00 | 0.00 | 0.00 | 85 | 1018.9 |
| 20260906125017 | 58 | 28 | 7.8 | 10.4 | 0.00 | 0.00 | 0.00 | 85 | 1018.9 |
| 20260906124542 | 57 | 15 | 6.1 | 9.6 | 0.00 | 0.00 | 0.00 | 85 | 1019.1 |
| 20260906124016 | 57 | 22 | 7.8 | 9.6 | 0.00 | 0.00 | 0.00 | 85 | 1018.9 |
| 20260906123516 | 57 | 19 | 6.1 | 8.7 | 0.00 | 0.00 | 0.00 | 85 | 1018.9 |
| 20260906123038 | 57 | 21 | 4.3 | 7.8 | 0.00 | 0.00 | 0.00 | 86 | 1019.1 |
| 20260906122519 | 57 | 17 | 4.3 | 7.8 | 0.00 | 0.00 | 0.00 | 86 | 1019.1 |
| 20260906122019 | 57 | 10 | 5.2 | 7.8 | 0.00 | 0.00 | 0.00 | 86 | 1019.1 |
| 20260906121539 | 57 | 18 | 5.2 | 9.6 | 0.00 | 0.00 | 0.00 | 86 | 1019.1 |
| 20260906121021 | 57 | 24 | 6.1 | 9.6 | 0.00 | 0.00 | 0.00 | 86 | 1018.8 |
| 20260906120516 | 56 | 26 | 7.0 | 9.6 | 0.00 | 0.00 | 0.00 | 87 | 1018.9 |
| 20260906120042 | 56 | 25 | 6.1 | 8.7 | 0.00 | 0.00 | 0.00 | 87 | 1018.9 |
| 20260906115518 | 56 | 11 | 6.1 | 9.6 | 0.00 | 0.00 | 0.00 | 87 | 1018.9 |
| 20260906115017 | 56 | 9 | 7.0 | 9.6 | 0.00 | 0.00 | 0.00 | 86 | 1018.9 |
| 20260906114546 | 56 | 16 | 7.0 | 9.6 | 0.00 | 0.00 | 0.00 | 86 | 1018.9 |
| 20260906114016 | 56 | 9 | 7.0 | 8.7 | 0.00 | 0.00 | 0.00 | 86 | 1019.1 |
| 20260906113513 | 56 | 352 | 6.1 | 9.6 | 0.00 | 0.00 | 0.00 | 85 | 1019.1 |
| 20260906113038 | 56 | 352 | 7.0 | 9.6 | 0.00 | 0.00 | 0.00 | 85 | 1019.1 |
| 20260906112518 | 56 | 360 | 6.1 | 10.4 | 0.00 | 0.00 | 0.00 | 85 | 1018.9 |
| 20260906112020 | 56 | 9 | 7.8 | 10.4 | 0.00 | 0.00 | 0.00 | 85 | 1018.9 |
| 20260906111540 | 56 | 352 | 7.8 | 11.3 | 0.00 | 0.00 | 0.00 | 85 | 1018.9 |
| 20260906111016 | 57 | 360 | 8.7 | 11.3 | 0.00 | 0.00 | 0.00 | 85 | 1018.8 |
| 20260906110516 | 57 | 11 | 9.6 | 11.3 | 0.00 | 0.00 | 0.00 | 85 | 1018.8 |
| 20260906110041 | 57 | 9 | 8.7 | 11.3 | 0.00 | 0.00 | 0.00 | 85 | 1018.8 |
| 20260906105518 | 57 | 360 | 8.7 | 11.3 | 0.00 | 0.00 | 0.00 | 85 | 1019.0 |
| 20260906105016 | 57 | 5 | 7.8 | 11.3 | 0.00 | 0.00 | 0.00 | 84 | 1019.1 |
| 20260906104540 | 57 | 352 | 8.7 | 11.3 | 0.00 | 0.00 | 0.00 | 84 | 1019.2 |
| 20260906104020 | 57 | 360 | 8.7 | 13.0 | 0.00 | 0.00 | 0.00 | 84 | 1019.2 |
| 20260906103517 | 57 | 352 | 9.6 | 13.9 | 0.00 | 0.00 | 0.00 | 84 | 1019.1 |
| 20260906103039 | 57 | 360 | 8.7 | 13.9 | 0.00 | 0.00 | 0.00 | 84 | 1019.1 |
| 20260906102517 | 56 | 9 | 9.6 | 13.0 | 0.00 | 0.00 | 0.00 | 85 | 1019.1 |
| 20260906102017 | 56 | 5 | 8.7 | 13.0 | 0.00 | 0.00 | 0.00 | 84 | 1019.2 |
| 20260906101539 | 56 | 9 | 9.6 | 14.8 | 0.00 | 0.00 | 0.00 | 84 | 1019.2 |
| 20260906101016 | 56 | 5 | 10.4 | 14.8 | 0.00 | 0.00 | 0.00 | 85 | 1019.2 |
| 20260906100516 | 56 | 352 | 11.3 | 13.9 | 0.00 | 0.00 | 0.00 | 85 | 1019.1 |
| 20260906100040 | 56 | 360 | 10.4 | 13.9 | 0.00 | 0.00 | 0.00 | 85 | 1019.1 |
| 20260906095524 | 56 | 352 | 10.4 | 13.9 | 0.00 | 0.00 | 0.00 | 85 | 1019.3 |
| 20260906095017 | 56 | 10 | 10.4 | 13.9 | 0.00 | 0.00 | 0.00 | 85 | 1019.2 |
| 20260906094558 | 56 | 352 | 10.4 | 14.8 | 0.00 | 0.00 | 0.00 | 85 | 1019.3 |
| 20260906094021 | 56 | 14 | 9.6 | 16.5 | 0.00 | 0.00 | 0.00 | 85 | 1019.3 |
| 20260906093516 | 55 | 338 | 13.0 | 16.5 | 0.00 | 0.00 | 0.00 | 86 | 1019.3 |
| 20260906093102 | 55 | 340 | 10.4 | 13.9 | 0.00 | 0.00 | 0.00 | 85 | 1019.3 |
| 20260906092517 | 55 | 345 | 10.4 | 13.9 | 0.00 | 0.00 | 0.00 | 85 | 1019.3 |
| 20260906092017 | 55 | 336 | 9.6 | 12.2 | 0.00 | 0.00 | 0.00 | 85 | 1019.4 |
| 20260906091537 | 55 | 352 | 8.7 | 11.3 | 0.00 | 0.00 | 0.00 | 85 | 1019.3 |
| 20260906091016 | 55 | 346 | 8.7 | 11.3 | 0.00 | 0.00 | 0.00 | 84 | 1019.2 |
| 20260906090515 | 55 | 339 | 7.8 | 13.0 | 0.00 | 0.00 | 0.00 | 84 | 1019.3 |
| 20260906090038 | 55 | 352 | 8.7 | 13.0 | 0.00 | 0.00 | 0.00 | 83 | 1019.4 |
| 20260906085520 | 55 | 344 | 10.4 | 13.9 | 0.00 | 0.00 | 0.00 | 83 | 1019.3 |
| 20260906085017 | 55 | 352 | 10.4 | 13.9 | 0.00 | 0.00 | 0.00 | 83 | 1019.2 |
| 20260906084537 | 55 | 5 | 9.6 | 13.0 | 0.00 | 0.00 | 0.00 | 83 | 1019.2 |
| 20260906084021 | 55 | 360 | 10.4 | 13.0 | 0.00 | 0.00 | 0.00 | 82 | 1019.3 |
| 20260906083518 | 56 | 360 | 9.6 | 13.0 | 0.00 | 0.00 | 0.00 | 82 | 1019.4 |
| 20260906083045 | 56 | 347 | 9.6 | 13.0 | 0.00 | 0.00 | 0.00 | 82 | 1019.3 |
| 20260906082517 | 56 | 360 | 10.4 | 13.9 | 0.00 | 0.00 | 0.00 | 81 | 1019.4 |
| 20260906082019 | 56 | 360 | 10.4 | 13.9 | 0.00 | 0.00 | 0.00 | 81 | 1019.4 |
| 20260906081540 | 56 | 9 | 10.4 | 15.6 | 0.00 | 0.00 | 0.00 | 80 | 1019.6 |
| 20260906081017 | 56 | 5 | 10.4 | 17.4 | 0.00 | 0.00 | 0.00 | 80 | 1019.4 |
| 20260906080518 | 56 | 9 | 12.2 | 15.6 | 0.00 | 0.00 | 0.00 | 80 | 1019.4 |
| 20260906080043 | 56 | 360 | 11.3 | 15.6 | 0.00 | 0.00 | 0.00 | 79 | 1019.5 |
| 20260906075517 | 57 | 360 | 10.4 | 16.5 | 0.00 | 0.00 | 0.00 | 79 | 1019.7 |
| 20260906075017 | 57 | 9 | 12.2 | 16.5 | 0.00 | 0.00 | 0.00 | 79 | 1019.6 |
| 20260906074534 | 57 | 9 | 12.2 | 16.5 | 0.00 | 0.00 | 0.00 | 79 | 1019.7 |
| 20260906074016 | 57 | 360 | 12.2 | 16.5 | 0.00 | 0.00 | 0.00 | 78 | 1019.8 |
| 20260906073518 | 58 | 5 | 11.3 | 14.8 | 0.00 | 0.00 | 0.00 | 77 | 1020.0 |
| 20260906073034 | 58 | 15 | 11.3 | 14.8 | 0.00 | 0.00 | 0.00 | 77 | 1020.1 |
| 20260906072515 | 58 | 13 | 10.4 | 14.8 | 0.00 | 0.00 | 0.00 | 77 | 1020.0 |
| 20260906072015 | 58 | 12 | 11.3 | 14.8 | 0.00 | 0.00 | 0.00 | 76 | 1020.1 |
| 20260906071537 | 58 | 9 | 10.4 | 13.9 | 0.00 | 0.00 | 0.00 | 77 | 1020.2 |
| 20260906071018 | 58 | 15 | 11.3 | 13.9 | 0.00 | 0.00 | 0.00 | 77 | 1020.3 |
| 20260906070521 | 58 | 22 | 10.4 | 15.6 | 0.00 | 0.00 | 0.00 | 76 | 1020.3 |
| 20260906070044 | 58 | 5 | 11.3 | 15.6 | 0.00 | 0.00 | 0.00 | 76 | 1020.4 |
| 20260906065518 | 58 | 13 | 10.4 | 15.6 | 0.00 | 0.00 | 0.00 | 77 | 1020.4 |
| 20260906065018 | 58 | 5 | 12.2 | 15.6 | 0.00 | 0.00 | 0.00 | 77 | 1020.5 |
| 20260906064542 | 58 | 10 | 10.4 | 13.0 | 0.00 | 0.00 | 0.00 | 77 | 1020.5 |
| 20260906064019 | 58 | 352 | 9.6 | 13.0 | 0.00 | 0.00 | 0.00 | 77 | 1020.5 |
| 20260906063516 | 58 | 16 | 9.6 | 13.9 | 0.00 | 0.00 | 0.00 | 77 | 1020.4 |
| 20260906063043 | 58 | 360 | 9.6 | 13.9 | 0.00 | 0.00 | 0.00 | 77 | 1020.5 |
| 20260906062518 | 58 | 9 | 9.6 | 13.9 | 0.00 | 0.00 | 0.00 | 77 | 1020.5 |
| 20260906062017 | 58 | 17 | 10.4 | 13.0 | 0.00 | 0.00 | 0.00 | 77 | 1020.6 |
| 20260906061549 | 58 | 9 | 10.4 | 13.0 | 0.00 | 0.00 | 0.00 | 78 | 1020.6 |
| 20260906061021 | 58 | 15 | 8.7 | 13.0 | 0.00 | 0.00 | 0.00 | 77 | 1020.6 |
| 20260906060523 | 58 | 360 | 10.4 | 13.0 | 0.00 | 0.00 | 0.00 | 77 | 1020.5 |
| 20260906060047 | 58 | 352 | 9.6 | 13.0 | 0.00 | 0.00 | 0.00 | 77 | 1020.7 |
| 20260906055520 | 58 | 346 | 9.6 | 12.2 | 0.00 | 0.00 | 0.00 | 77 | 1020.7 |
| 20260906055016 | 58 | 23 | 9.6 | 13.0 | 0.00 | 0.00 | 0.00 | 77 | 1020.7 |
| 20260906054548 | 58 | 11 | 8.7 | 13.0 | 0.00 | 0.00 | 0.00 | 77 | 1020.6 |
| 20260906054021 | 58 | 352 | 9.6 | 13.0 | 0.00 | 0.00 | 0.00 | 76 | 1020.7 |
| 20260906053519 | 58 | 11 | 9.6 | 12.2 | 0.00 | 0.00 | 0.00 | 76 | 1020.7 |
| 20260906053032 | 58 | 360 | 9.6 | 12.2 | 0.00 | 0.00 | 0.00 | 76 | 1020.7 |
| 20260906052519 | 58 | 12 | 9.6 | 12.2 | 0.00 | 0.00 | 0.00 | 76 | 1020.7 |
| 20260906052019 | 59 | 352 | 8.7 | 12.2 | 0.00 | 0.00 | 0.00 | 76 | 1020.7 |
| 20260906051555 | 59 | 5 | 9.6 | 14.8 | 0.00 | 0.00 | 0.00 | 75 | 1020.8 |
| 20260906051018 | 59 | 10 | 9.6 | 15.6 | 0.00 | 0.00 | 0.00 | 75 | 1020.7 |
| 20260906050520 | 59 | 9 | 9.6 | 16.5 | 0.00 | 0.00 | 0.00 | 75 | 1020.4 |
| 20260906045518 | 59 | 9 | 10.4 | 14.8 | 0.00 | 0.00 | 0.00 | 75 | 1020.2 |
| 20260906045018 | 59 | 360 | 10.4 | 15.6 | 0.00 | 0.00 | 0.00 | 75 | 1020.2 |
| 20260906044555 | 59 | 5 | 11.3 | 16.5 | 0.00 | 0.00 | 0.00 | 75 | 1020.0 |
| 20260906044019 | 59 | 14 | 12.2 | 15.6 | 0.00 | 0.00 | 0.00 | 75 | 1019.8 |
| 20260906043517 | 59 | 29 | 10.4 | 14.8 | 0.00 | 0.00 | 0.00 | 74 | 1019.9 |
| 20260906043056 | 59 | 9 | 11.3 | 15.6 | 0.00 | 0.00 | 0.00 | 74 | 1019.9 |
| 20260906042518 | 59 | 352 | 12.2 | 15.6 | 0.00 | 0.00 | 0.00 | 74 | 1019.9 |
| 20260906042018 | 59 | 351 | 11.3 | 13.9 | 0.00 | 0.00 | 0.00 | 74 | 1019.9 |
| 20260906041550 | 59 | 345 | 10.4 | 16.5 | 0.00 | 0.00 | 0.00 | 73 | 1019.9 |
| 20260906041018 | 60 | 347 | 11.3 | 16.5 | 0.00 | 0.00 | 0.00 | 73 | 1020.0 |
| 20260906040519 | 60 | 340 | 11.3 | 14.8 | 0.00 | 0.00 | 0.00 | 72 | 1019.8 |
| 20260906040033 | 60 | 348 | 10.4 | 16.5 | 0.00 | 0.00 | 0.00 | 72 | 1019.9 |
| 20260906035516 | 60 | 337 | 13.0 | 16.5 | 0.00 | 0.00 | 0.00 | 72 | 1019.9 |
| 20260906035021 | 60 | 352 | 11.3 | 13.9 | 0.00 | 0.00 | 0.00 | 72 | 1019.6 |
| 20260906034547 | 60 | 342 | 10.4 | 13.9 | 0.00 | 0.00 | 0.00 | 71 | 1019.7 |
| 20260906034018 | 60 | 346 | 10.4 | 13.9 | 0.00 | 0.00 | 0.00 | 71 | 1019.5 |
| 20260906033516 | 60 | 346 | 9.6 | 13.0 | 0.00 | 0.00 | 0.00 | 70 | 1019.5 |
| 20260906033056 | 60 | 360 | 9.6 | 13.0 | 0.00 | 0.00 | 0.00 | 70 | 1019.4 |
| 20260906032516 | 60 | 352 | 10.4 | 13.9 | 0.00 | 0.00 | 0.00 | 70 | 1019.2 |
| 20260906032016 | 60 | 351 | 9.6 | 13.9 | 0.00 | 0.00 | 0.00 | 70 | 1019.1 |
| 20260906031547 | 61 | 352 | 11.3 | 14.8 | 0.00 | 0.00 | 0.00 | 69 | 1019.0 |
| 20260906031019 | 61 | 360 | 11.3 | 16.5 | 0.00 | 0.00 | 0.00 | 69 | 1018.9 |
| 20260906030518 | 61 | 347 | 10.4 | 14.8 | 0.00 | 0.00 | 0.00 | 69 | 1019.0 |
| 20260906030050 | 61 | 346 | 11.3 | 14.8 | 0.00 | 0.00 | 0.00 | 69 | 1018.8 |
| 20260906025520 | 61 | 352 | 11.3 | 14.8 | 0.00 | 0.00 | 0.00 | 68 | 1018.7 |
| 20260906025022 | 61 | 342 | 11.3 | 16.5 | 0.00 | 0.00 | 0.00 | 68 | 1018.8 |
| 20260906024600 | 61 | 350 | 13.0 | 16.5 | 0.00 | 0.00 | 0.00 | 68 | 1018.7 |
| 20260906024019 | 61 | 5 | 11.3 | 14.8 | 0.00 | 0.00 | 0.00 | 67 | 1018.8 |
| 20260906023520 | 62 | 352 | 11.3 | 15.6 | 0.00 | 0.00 | 0.00 | 67 | 1018.9 |
| 20260906023046 | 62 | 360 | 12.2 | 14.8 | 0.00 | 0.00 | 0.00 | 66 | 1018.8 |
| 20260906022522 | 62 | 342 | 10.4 | 14.8 | 0.00 | 0.00 | 0.00 | 66 | 1018.8 |
| 20260906022019 | 62 | 352 | 12.2 | 17.4 | 0.00 | 0.00 | 0.00 | 65 | 1018.4 |
| 20260906021547 | 63 | 342 | 13.0 | 17.4 | 0.00 | 0.00 | 0.00 | 65 | 1018.9 |
| 20260906021017 | 63 | 347 | 11.3 | 17.4 | 0.00 | 0.00 | 0.00 | 64 | 1018.6 |
| 20260906020517 | 63 | 352 | 13.0 | 17.4 | 0.00 | 0.00 | 0.00 | 63 | 1018.5 |
| 20260906020046 | 63 | 352 | 13.0 | 16.5 | 0.00 | 0.00 | 0.00 | 63 | 1018.6 |
| 20260906015516 | 64 | 352 | 13.0 | 17.4 | 0.00 | 0.00 | 0.00 | 62 | 1018.6 |
| 20260906015016 | 64 | 360 | 13.0 | 18.2 | 0.00 | 0.00 | 0.00 | 61 | 1018.7 |
| 20260906014625 | 64 | 352 | 13.0 | 18.2 | 0.00 | 0.00 | 0.00 | 60 | 1018.7 |
| 20260906014022 | 65 | 9 | 13.0 | 18.2 | 0.00 | 0.00 | 0.00 | 59 | 1018.7 |
| 20260906013518 | 65 | 352 | 14.8 | 20.0 | 0.00 | 0.00 | 0.00 | 57 | 1018.5 |
| 20260906013058 | 66 | 9 | 15.6 | 20.0 | 0.00 | 0.00 | 0.00 | 57 | 1018.7 |
| 20260906012522 | 66 | 352 | 13.9 | 19.1 | 0.00 | 0.00 | 0.00 | 55 | 1018.5 |
| 20260906012019 | 67 | 5 | 13.9 | 19.1 | 0.00 | 0.00 | 0.00 | 54 | 1018.6 |
| 20260906011605 | 68 | 20 | 13.9 | 20.9 | 0.00 | 0.00 | 0.00 | 52 | 1018.8 |
| 20260906011018 | 70 | 360 | 13.9 | 20.9 | 0.00 | 0.00 | 0.00 | 49 | 1018.5 |
| 20260906010519 | 70 | 5 | 15.6 | 20.0 | 0.00 | 0.00 | 0.00 | 46 | 1018.7 |
| 20260906010058 | 71 | 350 | 16.5 | 20.0 | 0.00 | 0.00 | 0.00 | 44 | 1018.4 |
| 20260906005516 | 71 | 344 | 14.8 | 20.0 | 0.00 | 0.00 | 0.00 | 43 | 1018.2 |
| 20260906005018 | 72 | 342 | 14.8 | 20.0 | 0.00 | 0.00 | 0.00 | 43 | 1018.4 |
| 20260906004606 | 73 | 340 | 15.6 | 20.9 | 0.00 | 0.00 | 0.00 | 42 | 1018.5 |
| 20260906004025 | 74 | 5 | 15.6 | 20.9 | 0.00 | 0.00 | 0.00 | 40 | 1018.5 |
| 20260906003516 | 76 | 350 | 11.3 | 15.6 | 0.00 | 0.00 | 0.00 | 34 | 1018.2 |
| 20260906003059 | 76 | 352 | 12.2 | 16.5 | 0.00 | 0.00 | 0.00 | 33 | 1018.2 |
| 20260906002515 | 76 | 9 | 11.3 | 15.6 | 0.00 | 0.00 | 0.00 | 33 | 1018.2 |
| 20260906002019 | 76 | 360 | 11.3 | 16.5 | 0.00 | 0.00 | 0.00 | 33 | 1018.3 |
| 20260906001551 | 77 | 5 | 13.0 | 16.5 | 0.00 | 0.00 | 0.00 | 33 | 1018.1 |
| 20260906001019 | 77 | 350 | 9.6 | 15.6 | 0.00 | 0.00 | 0.00 | 32 | 1018.3 |
| 20260906000517 | 77 | 5 | 10.4 | 15.6 | 0.00 | 0.00 | 0.00 | 32 | 1018.3 |
| 20260906000055 | 77 | 346 | 10.4 | 15.6 | 0.00 | 0.00 | 0.00 | 32 | 1018.2 |
| 20260905235519 | 77 | 9 | 8.7 | 18.2 | 0.00 | 0.00 | 0.00 | 32 | 1018.4 |
| 20260905235020 | 77 | 11 | 9.6 | 18.2 | 0.00 | 0.00 | 0.00 | 32 | 1018.4 |
| 20260905234558 | 77 | 360 | 11.3 | 14.8 | 0.00 | 0.00 | 0.00 | 32 | 1018.4 |
| 20260905234018 | 77 | 331 | 8.7 | 13.9 | 0.00 | 0.00 | 0.00 | 32 | 1018.3 |
| 20260905233523 | 77 | 24 | 10.4 | 13.9 | 0.00 | 0.00 | 0.00 | 32 | 1018.5 |
| 20260905233051 | 78 | 42 | 8.7 | 13.0 | 0.00 | 0.00 | 0.00 | 31 | 1018.6 |
| 20260905232520 | 77 | 59 | 7.8 | 14.8 | 0.00 | 0.00 | 0.00 | 30 | 1018.5 |
| 20260905232021 | 78 | 24 | 7.0 | 14.8 | 0.00 | 0.00 | 0.00 | 31 | 1018.5 |
| 20260905231550 | 78 | 18 | 8.7 | 14.8 | 0.00 | 0.00 | 0.00 | 31 | 1018.2 |
| 20260905231018 | 78 | 24 | 7.8 | 13.9 | 0.00 | 0.00 | 0.00 | 31 | 1018.4 |
| 20260905230519 | 78 | 352 | 9.6 | 14.8 | 0.00 | 0.00 | 0.00 | 31 | 1018.5 |
| 20260905230108 | 78 | 352 | 9.6 | 14.8 | 0.00 | 0.00 | 0.00 | 31 | 1018.5 |